Location: Saint-Hippolyte
(43.6394°N, 4.7559°E)
Time: 15:17:44
(UTC+00:00)

CSL-04 Rocket - Pass Details

Date: 24 October 2020
Orbit: 805 x 861 km, 98.9° (Epoch: 24 November)

Event Time Altitude Azimuth Distance (km) Brightness Sun altitude
Rises 18:16:54 0° 153° (SSE) 3,424 6.6 -17.7°
Reaches altitude 10° 18:19:18 10° 150° (SSE) 2,491 5.9 -18.1°
Maximum altitude 18:24:45 61° 71° (ENE) 968 3.7 -19.1°
Drops below altitude 10° 18:30:12 10° 353° (N) 2,493 6.3 -20.1°
Sets 18:32:35 0° 350° (N) 3,427 7.0 -20.5°
